SCP
0 0 0 0 0 0 0 0 0 0 0 0 0 0 0 0 0 0 0 -0 -0 -0 0 0 0 0 0 0 0 0 0 0 0 0 0 0 0 0 0 0 0 0 0 0
0 0 0 0 0 0 0 0 0 0 0 0 0 0 0 0 0 0 0 -0 -0 -0 0 0 0 0 0 0 0 0 0 0 0 0 0 0 0 0 0 0 0 0 0 0
0 0 0 0 0 0 0 0 0 0 0 0 0 0 0 0 0 0 0 -0 -0 -0 0 0 0 0 0 0 0 0 0 0 0 0 0 0 0 0 0 0 0 0 0 0
0 0 0 0 0 0 0 0 0 0 0 0 0 0 0 0 -0 0 0 0 0 0 0 0 0 0 0 0 0 0 0 0 0 0 0 0 0 0 0 0 -0 -0 -0 0
0 0 0 0 0 0 0 0 0 0 0 0 0 0 0 0 0 0 0 0 0 0 0 0 0 0 0 0 0 0 0 0 0 0 0 0 0 0 0 0 0 0 0 0
0 0 0 0 0 0 0 0 0 0 0 0 0 0 0 0 0 0 0 0 0 0 0 0 0 0 0 0 0 0 0 0 0 0 0 0 0 0 0 0 0 0 0 0
-0 0 0 0 0 0 0 0 0 0 0 0 0 0 0 0 0 0 0 0 0 0 0 0 0 0 0 0 0 0 0 0 0 0 0 0 0 0 0 0 0 0 0 0
0 0 0 0 0 0 0 0 0 0 0 0 0 0 0 0 0 0 0 0 0 0 0 0 0 0 0 0 0 0 0 0 0 0 0 0 0 0 0 0 0 0 0 0
0 0 0 0 0 0 0 0 0 0 0 0 0 0 0 0 -0 -0 -0 0 0 0 0 0 0 0 0 0 0 0 0 0 0 0 0 0 0 0 0 0 0 0 0 0
0 0 0 -0 -0 0 0 0 0 0 0 0 0 0 0 0 0 -0 0 0 0 0 0 0 -0 0 0 0 0 0 0 0 0 0 0 0 0 0 0 0 0 0 0 0
0 0 0 -0 -0 0 0 0 0 0 0 0 0 0 0 0 0 0 0 0 0 0 0 -0 -0 0 0 -0 -0 0 0 0 0 0 0 0 0 0 0 0 0 0 0 0
0 0 0 0 -0 0 0 0 0 0 0 0 0 0 0 0 0 0 0 0 0 0 -0 -0 0 0 0 0 -0 -0 0 0 0 0 0 0 0 0 0 0 0 0 0 0
0 0 0 0 -0 0 0 0 0 0 0 0 0 -0 -0 -0 -0 -0 -0 0 0 -0 -0 -0 0 0 0 0 0 0 0 0 0 0 0 0 0 0 0 0 0 0 0 0
0 0 0 0 0 0 0 0 0 0 0 0 -0 -0 -0 -0 -0 -0 -0 -0 -0 -0 -0 0 0 0 0 0 0 0 0 0 0 0 0 0 0 0 0 0 0 0 0 0
0 0 0 0 0 0 0 0 0 0 0 0 -0 -0 -0 -0 -0 -0 -0 -0 -0 0 0 0 0 0 0 0 0 0 0 0 0 0 0 0 0 0 0 0 0 0 0 0
0 0 0 0 0 0 0 0 0 0 0 0 -0 -0 -0 0 0 0 -0 -0 -0 0 0 0 0 0 0 0 0 0 0 0 0 0 0 0 0 0 0 0 0 0 0 0
0 0 0 0 0 0 0 0 0 0 -0 0 0 0 0 0 0 0 -0 -0 -0 0 0 0 0 0 0 0 0 0 0 0 0 0 0 0 0 0 0 0 0 0 0 0
0 0 0 0 0 0 0 0 0 0 -0 0 0 0 0 0 0 0 -0 -0 -0 0 0 0 0 0 0 0 0 0 0 0 0 -0 -0 0 0 0 0 0 0 0 0 0
0 0 0 0 0 0 0 0 0 0 0 0 0 0 0 0 0 0 0 -0 -0 0 0 0 0 0 0 0 -0 0 0 0 0 -0 -0 0 0 0 0 0 0 0 0 0
0 0 0 0 0 0 0 0 0 0 0 0 0 0 0 -0 -0 0 0 0 0 0 0 0 0 -0 0 0 0 0 0 0 0 -0 -0 0 0 0 0 0 0 0 0 0
0 0 0 0 0 0 0 0 0 0 0 0 0 0 0 0 0 0 0 0 0 0 0 0 -0 -0 0 0 0 0 0 0 0 0 0 0 0 0 0 0 0 0 0 0
0 0 0 0 0 0 0 0 0 0 0 0 0 0 0 0 0 0 0 0 0 0 0 0 0 0 0 0 0 0 0 0 0 0 0 0 0 0 0 0 0 0 0 0
0 0 0 0 0 0 0 0 0 0 0 0 0 0 0 0 0 0 0 0 0 0 0 0 0 0 0 0 0 0 0 0 0 0 0 0 0 0 0 0 0 0 0 0
0 0 0 0 0 0 0 0 0 0 0 0 0 0 0 0 0 0 0 0 0 0 0 0 0 0 0 0 0 0 0 0 0 0 0 0 0 0 0 0 0 0 0 0
0 0 0 0 0 0 0 0 0 0 0 0 0 0 0 0 0 0 0 0 0 0 0 0 0 0 0 0 0 0 0 0 0 0 0 0 0 0 0 0 0 0 0 0
0 0 0 0 0 0 0 0 0 0 0 0 0 0 0 0 0 0 0 0 0 0 0 0 0 0 0 0 0 0 0 0 0 0 0 0 0 0 0 0 0 0 0 0
Wind_Speed
6 8 5 2 2 4 4 4 2 2 3 2 1 2 5 3 1 2 2 2 3 3 3 3 2 3 3 4 3 2 2 1 1 0 0 0 0 1 1 1 2 2 2 2
7 7 3 1 3 6 5 4 2 2 3 2 2 4 4 2 2 3 3 3 3 3 3 3 3 3 3 3 3 2 2 1 0 0 1 1 1 1 0 1 2 2 2 2
7 2 3 3 5 5 4 3 2 1 3 3 3 5 3 2 2 2 2 3 3 3 3 2 2 2 2 2 2 2 2 1 1 1 1 1 1 1 1 2 2 3 3 3
6 4 4 5 5 3 1 1 2 1 2 3 3 4 5 3 4 3 4 3 3 3 2 2 2 2 2 3 2 2 2 2 1 1 1 1 1 0 1 1 1 2 2 3
4 4 5 5 3 2 1 1 1 1 2 1 2 1 8 2 4 5 4 4 4 3 3 3 2 2 2 2 1 1 2 2 1 1 1 1 1 0 0 1 2 2 2 3
2 2 2 1 2 1 1 2 3 3 3 1 1 1 7 4 5 5 4 3 3 3 3 3 3 1 2 2 2 1 1 2 2 1 1 1 1 1 1 1 1 2 2 2
4 3 3 2 3 4 4 4 4 5 3 4 1 2 9 6 4 4 5 5 3 3 3 3 3 3 2 2 2 2 1 1 2 0 0 1 1 1 1 1 1 1 1 1
3 3 4 3 2 1 2 3 4 3 3 5 2 6 8 4 3 4 4 3 3 3 3 3 4 3 3 3 2 2 2 2 1 1 1 1 1 1 1 1 1 1 1 1
3 1 2 2 1 1 3 3 2 5 1 2 5 7 9 2 3 3 2 2 3 4 4 4 4 4 3 3 3 3 3 2 2 2 1 1 1 1 1 1 0 0 1 1
3 1 2 3 1 3 3 4 4 4 2 3 6 5 6 4 4 3 3 4 4 4 4 4 4 4 3 3 3 3 3 3 3 2 2 1 1 1 1 0 0 1 1 1
2 3 2 2 1 1 2 2 4 3 3 3 4 8 5 5 4 4 5 5 5 5 4 4 4 4 3 3 3 2 2 2 3 2 2 1 1 1 1 0 1 1 1 1
2 4 0 2 1 0 1 3 5 3 3 3 3 10 3 4 3 4 5 5 5 5 4 5 4 4 3 3 3 3 2 2 3 2 2 1 1 1 1 1 1 1 1 1
3 4 3 4 2 1 1 3 3 3 3 4 4 11 3 2 3 3 5 6 5 5 5 4 4 4 4 4 3 3 3 3 2 1 1 1 1 1 1 1 1 1 1 1
4 3 5 6 5 3 4 4 5 5 4 6 10 12 10 7 7 6 5 6 5 5 5 5 5 4 4 4 3 3 3 3 2 2 1 2 2 1 1 1 1 1 1 0
3 2 3 4 3 2 5 7 8 10 9 10 10 10 14 10 7 7 6 5 5 6 6 5 5 4 4 3 3 3 3 2 2 2 2 2 2 1 1 1 1 1 1 1
3 3 0 3 1 3 7 11 11 11 9 11 10 15 13 8 5 6 7 6 7 7 7 6 6 5 4 4 3 3 3 3 2 2 3 2 1 1 1 1 1 1 1 1
3 4 2 4 4 5 10 12 14 9 10 10 14 14 5 5 6 7 7 7 8 8 7 6 6 6 5 4 4 4 4 2 2 3 2 2 1 1 2 1 1 2 2 1
6 5 3 1 3 7 9 2 8 9 9 12 11 9 7 8 6 6 7 7 9 8 7 6 5 5 4 3 3 3 2 2 3 3 3 2 2 2 2 1 2 2 2 2
3 6 4 2 3 12 11 4 7 7 10 12 16 14 9 4 5 7 8 9 9 8 6 5 5 4 3 3 3 2 2 2 2 3 3 3 2 2 2 3 3 3 2 2
3 4 5 4 3 10 7 2 4 3 9 7 12 13 8 3 3 7 4 4 5 5 4 3 3 2 3 3 2 2 3 2 4 4 4 3 2 3 4 4 3 2 2 3
4 3 5 6 7 14 8 4 5 4 9 3 8 9 8 9 9 5 2 3 3 3 3 3 2 3 3 2 2 3 3 5 4 3 2 2 2 3 3 3 2 2 2 2
12 10 9 7 7 16 7 10 11 12 3 2 5 6 8 9 7 5 5 5 4 3 3 2 2 3 2 1 2 3 4 4 2 2 2 2 2 2 2 2 2 2 2 2
12 13 11 15 14 6 10 11 8 3 4 5 5 6 6 7 7 7 6 6 5 4 3 2 3 3 2 1 2 4 4 2 1 2 2 2 2 2 2 2 3 2 2 2
7 5 5 9 14 10 10 10 9 8 8 8 6 6 6 7 7 7 6 6 5 4 3 2 2 2 3 2 2 4 3 1 2 2 2 2 2 2 2 2 2 3 3 3
10 10 7 11 11 7 11 15 15 12 10 10 9 7 8 8 8 7 6 6 5 4 3 2 3 4 4 3 3 3 1 1 2 2 2 2 2 2 2 3 3 4 4 4
11 14 14 15 12 10 10 8 10 11 12 12 10 9 7 8 9 7 6 5 4 4 3 3 3 4 4 3 3 2 2 2 2 2 2 2 2 2 2 3 4 6 6 7
Wind_Direction
28 58 47 3 26 117 116 105 84 333 337 17 26 299 298 294 302 291 300 304 299 305 320 344 351 354 6 9 9 359 15 14 43 77 144 126 79 29 32 37 31 21 8 7
52 41 350 12 83 96 99 96 54 335 354 21 339 299 295 269 253 244 252 265 269 293 326 337 347 1 360 351 350 350 341 346 39 300 214 180 165 126 74 31 30 17 2 354
85 4 337 67 62 76 68 119 155 274 338 23 354 320 304 307 322 293 268 260 269 260 274 301 322 331 339 333 326 323 327 341 6 17 59 65 64 39 27 6 12 11 12 9
59 0 34 65 47 57 73 109 151 133 49 350 24 308 293 290 309 289 278 280 276 276 270 276 285 307 303 294 312 328 328 342 356 54 93 105 118 129 293 320 333 7 24 32
44 14 37 47 6 38 158 99 106 96 89 15 14 278 288 322 288 278 269 270 279 278 269 267 268 268 284 297 312 320 325 333 346 55 99 140 150 184 359 359 10 12 20 30
67 29 41 2 336 44 118 64 57 53 64 341 266 203 281 256 249 282 278 275 278 280 280 283 293 297 308 331 333 331 329 333 346 33 96 160 203 223 50 1 354 357 5 14
20 26 12 4 27 21 47 75 37 12 10 263 271 235 254 259 254 256 267 270 276 278 277 286 290 295 302 315 316 315 306 313 326 328 212 219 230 229 213 234 264 314 341 344
71 351 358 12 53 38 40 94 133 182 245 288 301 245 257 265 280 276 268 268 288 287 277 273 274 277 281 286 289 285 275 275 286 270 254 248 243 233 244 239 232 246 285 298
130 249 345 9 348 83 93 85 115 120 70 301 278 282 295 261 289 294 297 299 287 278 273 272 279 277 269 269 267 255 249 257 265 259 257 268 256 234 254 279 296 265 288 309
128 139 321 321 49 35 81 130 94 102 112 293 295 274 260 274 275 285 300 294 284 282 281 280 279 274 268 260 260 257 240 238 249 247 238 240 248 230 202 184 259 286 301 327
100 122 337 19 115 167 89 96 105 108 151 171 287 276 230 234 251 266 277 278 273 271 275 274 274 271 265 266 264 265 258 250 252 245 239 240 252 238 195 189 240 267 300 304
105 110 271 266 239 192 197 180 157 157 229 202 237 271 264 241 259 267 276 279 276 270 270 271 270 271 262 260 260 258 262 257 255 245 227 223 235 226 214 242 261 270 283 305
135 111 57 353 339 328 238 204 178 139 135 179 211 264 284 279 286 273 269 275 278 278 278 280 274 266 258 253 251 250 250 252 255 236 218 219 226 225 235 254 271 278 278 309
113 124 171 204 227 199 222 210 180 159 183 216 229 257 283 283 283 284 278 273 276 274 272 272 269 262 259 247 240 239 245 239 231 216 218 232 239 233 243 255 262 257 244 269
113 169 229 260 271 250 240 230 201 205 208 215 240 245 263 264 265 273 276 276 279 279 274 266 262 259 262 257 246 237 240 234 218 213 227 240 243 228 226 241 274 277 274 273
112 149 131 296 294 273 265 244 222 226 227 238 261 270 261 263 263 266 267 263 263 266 266 264 261 256 253 248 243 237 239 233 206 214 236 245 231 228 240 252 251 270 274 298
137 131 123 280 321 338 273 231 199 204 210 199 224 242 256 258 251 250 252 253 254 258 259 257 254 249 247 241 231 232 237 225 206 219 237 241 223 234 250 254 256 263 270 267
142 132 135 306 14 255 248 172 181 205 230 215 235 249 245 245 265 264 248 245 254 252 250 249 245 245 244 234 225 230 225 211 212 221 236 241 225 233 245 244 253 262 265 261
144 138 127 132 263 280 288 226 176 194 262 219 225 245 253 264 308 283 246 228 235 239 238 236 231 232 237 237 225 211 218 212 220 233 241 244 231 233 239 244 252 256 257 265
73 104 123 144 205 251 257 173 169 133 279 234 204 228 231 170 259 270 256 223 231 239 234 227 223 215 233 243 199 194 220 220 235 241 243 239 228 229 239 245 253 260 254 260
148 148 167 182 227 262 250 153 139 185 249 226 192 211 195 199 223 251 270 251 236 234 233 217 211 225 237 228 177 206 226 237 242 241 240 240 235 236 242 252 261 260 259 272
174 172 187 167 206 252 193 152 193 220 248 204 204 207 208 225 248 265 269 263 258 254 245 216 216 243 247 199 187 224 243 250 240 217 227 238 241 242 242 243 259 256 245 258
201 192 185 193 215 241 177 201 219 221 237 235 224 227 216 231 247 254 260 260 258 250 246 231 222 247 264 219 200 232 258 255 220 216 236 247 253 250 244 234 242 249 240 246
230 199 196 242 254 245 234 244 248 235 235 245 243 243 227 234 246 253 258 258 253 247 241 233 220 238 258 250 233 241 262 229 199 231 249 248 248 259 255 247 239 238 238 243
202 173 201 246 263 280 255 233 237 241 241 246 248 240 233 233 246 247 251 251 244 242 233 213 220 238 253 254 250 256 253 181 210 239 250 254 247 250 257 252 246 246 242 236
190 184 192 227 220 209 239 227 215 222 232 232 234 244 235 220 237 242 246 246 234 231 227 224 230 241 254 253 250 251 224 196 209 239 245 243 249 253 257 269 284 272 269 274